STARLINK-4684, 53595

Orbit data source: Space-Track

STARLINK-4684, 53595 is a payload satellite owned by SpaceX/Seattle (US) in LEO that was launched on Sun, 28 Aug 2022 UTC via an FALCON 9 launch vehicle from the Air Force Eastern Test Range (AFETR). Payload-class satellites include a variety of spacecraft equipped with specific instruments for various scientific and technological missions. These include communications satellites like Starlink; space stations such as the ISS; scientific satellites like the Hubble; Earth observation satellites from companies like Planet Labs, Umbra, and HawkEye 360; GPS; miniature CubeSats for education and research; and military/defense satellites.

Loading next visibility...
Identifier
53595, 2022-104H
Orbit
LEO
Country
Flag of USUS
Related business
Manufacturer
SpaceX/Seattle
Mission
Operational Commercial Communications
Bus & Motor
STARLINK, Unknown motor
Mass
300 kg wet, ~290 kg dry
Launch date (UTC)
2022-08-28 (3 years ago)
Launch vehicle
FALCON 9
Launch site
Air Force Eastern Test Range (AFETR)
Object type
Payload
Rocket body
Debris
Shape & HBR
Box + 1 Pan, 10.1 m
Radar Cross Section
13.562 m², Large (>1 m²)

Expand to show TLE details & history
Last TLE update: 1 day ago

TLE from 1 day ago
0 STARLINK-4684
1 53595U 22104H   25301.20280366 -.00000053  00000-0  14738-4 0  9990
2 53595  53.2164 118.8900 0000538  47.2885 312.8152 15.08840146175942
Epoch: 2025-10-28T04:52Z
TLE epoch observation values (Epoch: 2025-10-28T04:52:02.236Z)
Latitude
-0.00004°
Longitude
9.08698°
Altitude
540.387 km
Speed
7.593 km/s
True Right ascension
07h 55m 33s
True Declination
0° 00' 00"
Sunlit
Object was in daylight at epoch
Visualization orbit readout
Latitude
Unknown
Longitude
Unknown
Altitude
Unknown
Speed
Unknown
Apparent Right ascension
Unknown
Apparent Declination
Unknown
Sunlit
N/A
Visualization observer readout
Local Sidereal Time
03:27:42
Azimuth
Unknown
Elevation
Unknown
Doppler factor
Unknown
Orbital elements
Apogee altitude
540.36 km
Perigee altitude
539.616 km
Semi-major axis
6,918.125 km
Eccentricity
0.00005
Inclination
53.2164°
RAAN
118.89°
Arg. of periapsis
47.2885°
True anomaly
312.81068°
Mean anomaly
312.8152°
Eccentric anomaly
312.81294°
Mean motion
3.7719 °/min
Orbital period
95.44 mins
BSTAR
0.000014738
Loading maneuver chart data...
Computing Atmospheric mass density...
Loading historical data...
Loading historical data...
Loading historical data...
Loading historical data...
Loading historical data...
Loading historical data...
Loading historical data...

Documentation

Showing up to 5 results
|